Location: Aulagny
(45.1643°N, 4.3096°E)
Time: 15:14:44
(UTC+00:00)

Cosmos 1328 - Pass Details

Date: 21 October 2019
Orbit: 531 x 553 km, 82.5° (Epoch: 12 November)

Event Time Altitude Azimuth Distance (km) Brightness Sun altitude
Rises 17:37:04 0° 350° (N) 2,709 7.4 -9.3°
Reaches altitude 10° 17:39:14 10° 350° (N) 1,808 6.5 -9.7°
Maximum altitude 17:43:12 84° 265° (W) 545 3.8 -10.4°
Drops below altitude 10° 17:47:08 10° 175° (S) 1,782 6.4 -11.1°
Sets 17:49:15 0° 175° (S) 2,665 7.3 -11.5°
